Weather in Teryaevo

Russia / Moscow Oblast     56°10′19″N   36°07′38″E
temp.,
°C
wind,
m/s
gust,
m/s
humid.,
%
clouds,
%
prec.,
mm/h
press.,
hPa
HPBL,
m
27 july, tue
tue2700:00+16se11660 0.0 102111
03:00+15ssw11732 0.0 102211
06:00+16ne11720 0.0 102111
09:00+23s01491 0.0 1021424
12:00+27se11370 0.0 10201788
15:00+28wsw22330 0.0 10192358
18:00+26w22425 0.0 1018676
21:00+20ese1159100 0.0 101711
28 july, wed
wed2800:00+20s116087 0.0 101717
03:00+17sse228396 0.2 101616
06:00+17ssw228795 0.3 101665
09:00+22s2366100 0.3 1015436
12:00+22wsw1174100 1.4 1013258
15:00+20ssw3882100 2.1 1013457
18:00+19s5981100 0.3 1011710
21:00+16sse2592100 0.3 1009307
29 july, thu
thu2900:00+16ssw1297100 0.7 1008137
03:00+16w2599100 0.7 1007317
06:00+15wnw269865 0.0 1007251
09:00+20wnw458173 0.0 1007670
12:00+25wnw465593 0.0 10061400
15:00+25w4652100 0.0 10061334
18:00+23w37717 0.3 1006266
21:00+20sw237691 0.3 100652
30 july, fri
fri3000:00+19wsw267839 0.1 1006136
03:00+16sw239064 0.1 100755
06:00+18wsw247922 0.0 1007122
09:00+23wsw35613 0.0 1007588
12:00+26wsw354855 0.6 10071964
15:00+24wsw3556100 0.6 1006725
18:00+22ssw2566100 0.1 1006106
21:00+19ssw3577100 0.1 100577
31 july, sat
sat3100:00+17sw3881100 0.0 1006175
03:00+16ssw2381100 0.0 100553
06:00+17sw247610 0.0 1005115
09:00+21wsw476334 0.0 1005621
12:00+25wsw6114373 0.0 10052419
15:00+22wsw4956100 0.0 1004940
18:00+23sw61155100 0.0 10041132
21:00+21sw412600 0.0 1004481